Weather History for Oshkosh, WI

Change the Weather History Date:

Monday, March 31, 2014

  Actual Average Record
Temperature  
Mean Temperature 48 °F -  
Max Temperature 59 °F 48 °F 78 °F (1978)
Min Temperature 37 °F 28 °F 3 °F (1969)
Degree Days  
Heating Degree Days 17    
Moisture  
Dew Point 33 °F    
Average Humidity 56    
Maximum Humidity 76    
Minimum Humidity 42    
Precipitation  
Precipitation 0.00 in - - ()
Sea Level Pressure  
Sea Level Pressure 29.82 in    
Wind  
Wind Speed 9 mph (SE)    
Max Wind Speed 21 mph    
Max Gust Speed 29 mph    
Visibility 10 miles    
Events      
Averages and records for this station are not official NWS values.
T = Trace of Precipitation, MM = Missing Value Source: NWS Daily Summary

Daily Weather History Graph

Daily Weather History Graph

Search for Another Location

Airport:

Trip Planner

Search our weather history database for the weather conditions in past years. The results will help you decide how hot, cold, wet, or windy it might be!

Date:

Astronomy

Mar. 31, 2014 Rise Set
Actual Time 6:37 AM CDT 7:20 PM CDT
Civil Twilight 6:08 AM CDT 7:49 PM CDT
Nautical Twilight 5:33 AM CDT 8:23 PM CDT
Astronomical Twilight 4:58 AM CDT 8:59 PM CDT
Moon 6:58 AM CDT (3/31) 8:41 PM CDT (3/31)
Length of Visible Light 13h 40m
Length of Day
12h 42m
New Moon, 1% of the Moon is Illuminated
Mar 31
New Moon
Apr 7
First Quarter
Apr 15
Full
Apr 22
Last Quarter
Apr 29
New

Hourly Weather History & Observations

Time (CDT) Temp. Windchill Dew Point Humidity Pressure Visibility Wind Dir Wind Speed Gust Speed Precip Events Conditions
12:53 AM 37.9 °F - 30.0 °F 73% 30.03 in 10.0 mi Calm Calm - N/A   Clear
1:53 AM 37.0 °F 33.3 °F 30.0 °F 76% 30.01 in 9.0 mi SE 4.6 mph - N/A   Clear
2:53 AM 39.9 °F 35.8 °F 32.0 °F 73% 30.00 in 10.0 mi SE 5.8 mph - 0.00 in   Mostly Cloudy
3:53 AM 39.0 °F 34.8 °F 30.9 °F 73% 29.99 in 9.0 mi ESE 5.8 mph - N/A   Scattered Clouds
4:53 AM 39.0 °F 34.8 °F 32.0 °F 76% 29.98 in 9.0 mi SE 5.8 mph - N/A   Scattered Clouds
5:53 AM 41.0 °F 35.2 °F 32.0 °F 70% 29.97 in 10.0 mi SE 9.2 mph - N/A   Unknown
6:53 AM 41.0 °F 34.3 °F 32.0 °F 70% 29.96 in 9.0 mi SSE 11.5 mph - N/A   Partly Cloudy
7:53 AM 43.0 °F 36.4 °F 32.0 °F 65% 29.95 in 10.0 mi SSE 12.7 mph - N/A   Mostly Cloudy
8:53 AM 46.0 °F 40.6 °F 32.0 °F 58% 29.93 in 10.0 mi SSE 11.5 mph - N/A   Clear
9:53 AM 50.0 °F - 34.0 °F 54% 29.91 in 10.0 mi SSE 13.8 mph - N/A   Mostly Cloudy
10:53 AM 54.0 °F - 34.0 °F 47% 29.88 in 10.0 mi SSE 17.3 mph 23.0 mph N/A   Clear
11:53 AM 59.0 °F - 36.0 °F 42% 29.88 in 10.0 mi South 20.7 mph 27.6 mph N/A   Clear
12:53 PM 57.9 °F - 35.1 °F 42% 29.83 in 10.0 mi SSE 17.3 mph 28.8 mph N/A   Clear
1:53 PM 52.0 °F - 36.0 °F 54% 29.81 in 10.0 mi SE 11.5 mph - N/A   Clear
2:53 PM 53.1 °F - 36.0 °F 52% 29.76 in 10.0 mi SE 13.8 mph - N/A   Clear
3:53 PM 55.9 °F - 34.0 °F 44% 29.73 in 10.0 mi SE 15.0 mph - N/A   Partly Cloudy
4:53 PM 55.0 °F - 33.1 °F 43% 29.69 in 10.0 mi SE 15.0 mph - N/A   Clear
5:53 PM 55.0 °F - 33.1 °F 43% 29.68 in 10.0 mi SE 8.1 mph - N/A   Partly Cloudy
6:53 PM 55.0 °F - 32.0 °F 42% 29.66 in 10.0 mi SE 13.8 mph - N/A   Scattered Clouds
7:53 PM 53.1 °F - 30.9 °F 43% 29.65 in 10.0 mi South 9.2 mph - N/A   Partly Cloudy
8:53 PM 51.1 °F - 32.0 °F 48% 29.65 in 10.0 mi SSE 8.1 mph - N/A   Partly Cloudy
9:53 PM 52.0 °F - 30.9 °F 45% 29.64 in 10.0 mi SSE 9.2 mph - N/A   Scattered Clouds
10:53 PM 51.1 °F - 34.0 °F 52% 29.60 in 10.0 mi SSE 12.7 mph - N/A   Clear
11:53 PM 53.1 °F - 37.0 °F 55% 29.56 in 10.0 mi South 13.8 mph 26.5 mph N/A   Clear